Location: Casone le Fosse
(44.6547°N, 12.1103°E)
Time: 04:14:52
(UTC+00:00)

Cosmos 1777 Rocket - Pass Details

Date: 29 October 2020
Orbit: 758 x 775 km, 74.0° (Epoch: 01 December)

Event Time Altitude Azimuth Distance (km) Brightness Sun altitude
Rises 18:32:16 0° 339° (NNW) 3,228 7.6 -26.8°
Reaches altitude 10° 18:34:39 10° 341° (NNW) 2,299 6.8 -27.2°
Enters shadow 18:38:35 52° 353° (N) 948 4.4 -27.9°
